THORAD AGENA D DEB, 4756

Orbit data source: Space-Track

THORAD AGENA D DEB, 4756 is space debris in SSO originally from a launch on Wed, 08 Apr 1970 UTC launched from the Air Force Western Test Range (AFWTR). Debris objects in space refer to the collection of defunct objects orbiting the Earth. Examples of debris include non-operational satellites, rocket bodies, and fragments generated from explosions, collisions, or faulty payload assembly.

Loading next visibility...
Identifier
4756, 1970-025DE
Orbit
SSO
Country
Flag of USUS
Related business
Manufacturer
Unknown
Mission
Spacecraft
Bus & Motor
Unknown
Mass
Unknown
Launch date (UTC)
1970-04-08 (56 years ago)
Launch vehicle
Unknown
Launch site
Air Force Western Test Range (AFWTR)
Object type
Payload
Rocket body
Debris
Shape & HBR
Unknown shape, 0.1 m
Radar Cross Section
Medium (>0.1 m² and <1 m²)

Expand to show TLE details & history
Last TLE update: 9 hours ago

TLE from 9 hours ago
0 THORAD AGENA D DEB
1  4756U 70025DE  26167.08859801  .00000052  00000-0  15734-3 0  9997
2  4756 100.2363 206.7314 0027828 181.8871 178.2160 13.49418465761962
Epoch: 2026-06-16T02:07Z
TLE epoch observation values (Epoch: 2026-06-16T02:07:34.868Z)
Latitude
-0.00002°
Longitude
-89.52953°
Altitude
1,097.897 km
Speed
7.293 km/s
True Right ascension
13h 46m 55s
True Declination
0° 00' 00"
Sunlit
Object was in daylight at epoch
Visualization orbit readout
Latitude
Unknown
Longitude
Unknown
Altitude
Unknown
Speed
Unknown
Apparent Right ascension
Unknown
Apparent Declination
Unknown
Sunlit
N/A
Visualization observer readout
Local Sidereal Time
21:16:27
Azimuth
Unknown
Elevation
Unknown
Doppler factor
Unknown
Orbital elements
Apogee altitude
1,092.461 km
Perigee altitude
1,050.998 km
Semi-major axis
7,449.866 km
Eccentricity
0.00278
Inclination
100.2363°
RAAN
206.7314°
Arg. of periapsis
181.8871°
True anomaly
178.22589°
Mean anomaly
178.216°
Eccentric anomaly
178.22095°
Mean motion
3.37536 °/min
Orbital period
106.66 mins
BSTAR
0.00015734

Documentation

Showing up to 5 results
|